Weather in Burford

United Kingdom     51°48′28″N   1°38′10″W
temp.,
°C
wind,
m/s
gust,
m/s
humid.,
%
clouds,
%
prec.,
mm/h
press.,
hPa
HPBL,
m
16 may, mon
mon1601:00+14ese3109998 4.0 1009411
04:00+12se129998 1.6 100941
07:00+13sw41098100 2.7 1011410
10:00+16sw698455 0.1 1013899
13:00+17sw798439 0.9 10141141
16:00+18ssw8107538 0.7 10141231
19:00+16sw51087100 1.3 1014763
22:00+12ssw3896100 0.0 1017208
17 may, tue
tue1701:00+10ssw389615 0.0 1017170
04:00+9ssw39962 0.0 1017182
07:00+11s310944 0.0 1018329
10:00+17s587628 0.0 1018743
13:00+19s577059 0.0 10171243
16:00+20sse7127127 0.0 10151367
19:00+15s6148694 0.4 1014581
22:00+13s5109593 0.0 1016449
18 may, wed
wed1801:00+12sw479778 0.1 1017238
04:00+9ssw49978 0.0 1018195
07:00+10ssw499513 0.0 1020297
10:00+15ssw5778100 0.0 1020903
13:00+18ssw5865100 0.1 10201474
16:00+18s6766100 0.0 10181317
19:00+15sse4877100 0.0 1017391
22:00+13sw2592100 0.3 1018181
19 may, thu
thu1901:00+12sse2295100 0.8 101767
04:00+12wsw2294100 0.2 101737
07:00+11w359592 0.2 1017201
10:00+14wsw577945 0.0 1019733
13:00+17wsw466256 0.0 10191228
16:00+17w586323 0.0 10191437
19:00+15w467616 0.1 1020525
22:00+10wsw338518 0.0 102143
20 may, fri
fri2001:00+8sw2287100 0.0 102111
04:00+8s229462 0.0 102024
07:00+10ssw258626 0.0 1019143
10:00+13s3778100 0.0 1018418
13:00+17ssw686890 0.0 10161471
16:00+17wsw79665 0.6 10151408
19:00+15wsw711810 0.6 10151038
22:00+11wsw513936 0.0 1016563